• In Hungary
  • List of Countries
  • For 7 days
  • Water Temperature
  • Satellite Maps
  • Weather Map
  • News
  • Weather Widgets
  • user-avatar
    Login

    Hourly Weather Santa Elena de Uairén

    Today, 14 December, Thursday

    Time Temperature Precipitation Wind Pressure Humidity
    00:00 +21°C° 0.1 mm 2 mps 682 mmHg 82%
    01:00 +21°C° 0.1 mm 2 mps 682 mmHg 83%
    02:00 +20°C° 0 mm 2 mps 682 mmHg 84%
    03:00 +20°C° 0 mm 2 mps 682 mmHg 84%
    04:00 +20°C° 0 mm 2 mps 682 mmHg 85%
    05:00 +20°C° 0 mm 2 mps 681 mmHg 85%
    06:00 +21°C° 0 mm 2 mps 682 mmHg 80%
    07:00 +23°C° 0 mm 2 mps 683 mmHg 75%
    08:00 +24°C° 0 mm 2 mps 683 mmHg 70%
    09:00 +26°C° 0 mm 2 mps 684 mmHg 63%
    10:00 +28°C° 0 mm 2 mps 684 mmHg 55%
    11:00 +30°C° 0 mm 2 mps 684 mmHg 47%
    12:00 +30°C° 0.1 mm 2 mps 684 mmHg 47%
    13:00 +31°C° 0.1 mm 2 mps 683 mmHg 46%
    14:00 +31°C° 0.1 mm 2 mps 682 mmHg 45%
    15:00 +31°C° 0 mm 2 mps 682 mmHg 46%
    16:00 +30°C° 0 mm 2 mps 681 mmHg 48%
    17:00 +29°C° 0 mm 2 mps 681 mmHg 49%
    18:00 +28°C° 0 mm 2 mps 681 mmHg 54%
    19:00 +26°C° 0 mm 2 mps 681 mmHg 59%
    20:00 +25°C° 0 mm 2 mps 682 mmHg 64%
    21:00 +24°C° 0 mm 2 mps 682 mmHg 67%
    22:00 +24°C° 0 mm 2 mps 682 mmHg 71%
    23:00 +23°C° 0 mm 2 mps 682 mmHg 75%

    Tomorrow, 15 December, Friday

    Time Temperature Precipitation Wind Pressure Humidity
    00:00 +21°C° 0 mm 2 mps 682 mmHg 77%
    01:00 +21°C° 0 mm 2 mps 681 mmHg 79%
    02:00 +21°C° 0 mm 2 mps 681 mmHg 81%
    03:00 +20°C° 0 mm 2 mps 681 mmHg 82%
    04:00 +20°C° 0 mm 2 mps 681 mmHg 83%
    05:00 +19°C° 0 mm 2 mps 681 mmHg 84%
    06:00 +21°C° 0 mm 2 mps 682 mmHg 78%
    07:00 +23°C° 0 mm 2 mps 682 mmHg 71%
    08:00 +24°C° 0 mm 2 mps 683 mmHg 65%
    09:00 +26°C° 0 mm 2 mps 683 mmHg 55%
    10:00 +29°C° 0 mm 2 mps 684 mmHg 46%
    11:00 +31°C° 0 mm 2 mps 684 mmHg 37%
    12:00 +31°C° 0 mm 2 mps 683 mmHg 36%
    13:00 +32°C° 0 mm 2 mps 682 mmHg 36%
    14:00 +32°C° 0 mm 2 mps 682 mmHg 35%
    15:00 +31°C° 0 mm 2 mps 681 mmHg 38%
    16:00 +30°C° 0 mm 2 mps 680 mmHg 40%
    17:00 +29°C° 0 mm 2 mps 680 mmHg 43%
    18:00 +28°C° 0 mm 2 mps 680 mmHg 48%
    19:00 +26°C° 0 mm 3 mps 680 mmHg 54%
    20:00 +24°C° 0 mm 3 mps 681 mmHg 59%
    21:00 +24°C° 0 mm 3 mps 681 mmHg 64%
    22:00 +22°C° 0 mm 3 mps 681 mmHg 69%
    23:00 +21°C° 0 mm 3 mps 681 mmHg 74%

    Day after tomorrow, 16 December, Saturday

    Time Temperature Precipitation Wind Pressure Humidity
    00:00 +21°C° 0 mm 3 mps 681 mmHg 76%
    01:00 +21°C° 0 mm 2 mps 681 mmHg 78%
    02:00 +20°C° 0 mm 2 mps 681 mmHg 80%
    03:00 +20°C° 0 mm 2 mps 680 mmHg 81%
    04:00 +20°C° 0 mm 2 mps 680 mmHg 82%
    05:00 +19°C° 0 mm 2 mps 680 mmHg 83%
    06:00 +21°C° 0 mm 2 mps 681 mmHg 78%
    07:00 +23°C° 0 mm 2 mps 682 mmHg 73%
    08:00 +24°C° 0 mm 2 mps 682 mmHg 67%
    09:00 +27°C° 0 mm 2 mps 683 mmHg 58%
    10:00 +29°C° 0 mm 2 mps 683 mmHg 49%
    11:00 +32°C° 0 mm 2 mps 684 mmHg 39%
    12:00 +32°C° 0 mm 2 mps 683 mmHg 38%
    13:00 +32°C° 0 mm 2 mps 682 mmHg 36%
    14:00 +32°C° 0 mm 2 mps 681 mmHg 34%
    15:00 +32°C° 0 mm 2 mps 680 mmHg 36%
    16:00 +31°C° 0 mm 2 mps 680 mmHg 37%
    17:00 +31°C° 0 mm 2 mps 679 mmHg 39%
    18:00 +29°C° 0 mm 3 mps 679 mmHg 45%
    19:00 +27°C° 0 mm 3 mps 680 mmHg 52%
    20:00 +25°C° 0 mm 3 mps 680 mmHg 59%
    21:00 +24°C° 0 mm 3 mps 680 mmHg 64%
    22:00 +22°C° 0 mm 3 mps 681 mmHg 68%
    23:00 +22°C° 0 mm 3 mps 681 mmHg 73%

    17 December, Sunday

    Time Temperature Precipitation Wind Pressure Humidity
    00:00 +21°C° 0 mm 3 mps 680 mmHg 75%
    01:00 +21°C° 0 mm 3 mps 680 mmHg 77%
    02:00 +20°C° 0 mm 2 mps 680 mmHg 79%
    03:00 +20°C° 0 mm 2 mps 680 mmHg 80%
    04:00 +19°C° 0 mm 2 mps 680 mmHg 81%
    05:00 +19°C° 0 mm 2 mps 680 mmHg 82%
    06:00 +20°C° 0 mm 2 mps 681 mmHg 75%
    07:00 +23°C° 0 mm 2 mps 682 mmHg 68%
    08:00 +24°C° 0 mm 2 mps 682 mmHg 62%
    09:00 +27°C° 0 mm 2 mps 683 mmHg 53%
    10:00 +29°C° 0 mm 2 mps 683 mmHg 44%
    11:00 +32°C° 0 mm 2 mps 684 mmHg 36%
    12:00 +34°C° 0 mm 2 mps 683 mmHg 34%
    13:00 +34°C° 0 mm 2 mps 682 mmHg 33%
    14:00 +35°C° 0 mm 2 mps 681 mmHg 31%
    15:00 +32°C° 0 mm 2 mps 681 mmHg 35%
    16:00 +31°C° 0 mm 2 mps 680 mmHg 39%
    17:00 +30°C° 0 mm 2 mps 680 mmHg 43%
    18:00 +28°C° 0 mm 2 mps 680 mmHg 49%
    19:00 +27°C° 0 mm 3 mps 680 mmHg 55%
    20:00 +25°C° 0 mm 3 mps 681 mmHg 61%
    21:00 +24°C° 0 mm 3 mps 681 mmHg 66%
    22:00 +24°C° 0 mm 3 mps 681 mmHg 70%
    23:00 +23°C° 0 mm 2 mps 681 mmHg 74%

    18 December, Monday

    Time Temperature Precipitation Wind Pressure Humidity
    00:00 +23°C° 0 mm 2 mps 681 mmHg 76%
    01:00 +21°C° 0 mm 2 mps 681 mmHg 78%
    02:00 +21°C° 0 mm 2 mps 680 mmHg 80%
    03:00 +20°C° 0 mm 2 mps 680 mmHg 81%
    04:00 +20°C° 0 mm 2 mps 680 mmHg 82%
    05:00 +21°C° 0 mm 1 mps 680 mmHg 84%
    06:00 +21°C° 0 mm 2 mps 681 mmHg 79%
    07:00 +23°C° 0 mm 2 mps 682 mmHg 74%
    08:00 +24°C° 0 mm 2 mps 683 mmHg 69%
    09:00 +27°C° 0 mm 2 mps 683 mmHg 59%
    10:00 +29°C° 0 mm 2 mps 683 mmHg 50%
    11:00 +32°C° 0 mm 2 mps 684 mmHg 40%
    12:00 +31°C° 0 mm 2 mps 683 mmHg 40%
    13:00 +31°C° 0 mm 2 mps 682 mmHg 40%
    14:00 +31°C° 0 mm 2 mps 681 mmHg 41%
    15:00 +30°C° 0 mm 1 mps 681 mmHg 42%
    16:00 +30°C° 0 mm 1 mps 680 mmHg 44%
    17:00 +29°C° 0 mm 1 mps 680 mmHg 46%
    18:00 +28°C° 0 mm 2 mps 680 mmHg 50%
    19:00 +27°C° 0 mm 2 mps 681 mmHg 53%
    20:00 +26°C° 0 mm 2 mps 681 mmHg 57%
    21:00 +25°C° 0 mm 2 mps 681 mmHg 61%
    22:00 +24°C° 0 mm 2 mps 682 mmHg 65%
    23:00 +24°C° 0 mm 2 mps 682 mmHg 69%

    19 December, Tuesday

    Time Temperature Precipitation Wind Pressure Humidity
    00:00 +23°C° 0 mm 2 mps 681 mmHg 72%
    01:00 +21°C° 0 mm 2 mps 681 mmHg 75%
    02:00 +21°C° 0 mm 2 mps 681 mmHg 78%
    03:00 +21°C° 0 mm 2 mps 681 mmHg 80%
    04:00 +20°C° 0 mm 2 mps 681 mmHg 81%
    05:00 +20°C° 0 mm 2 mps 681 mmHg 83%
    06:00 +21°C° 0 mm 2 mps 682 mmHg 77%
    07:00 +23°C° 0 mm 2 mps 682 mmHg 72%
    08:00 +25°C° 0 mm 2 mps 683 mmHg 67%
    09:00 +27°C° 0 mm 2 mps 683 mmHg 58%
    10:00 +29°C° 0 mm 2 mps 684 mmHg 50%
    11:00 +31°C° 0 mm 2 mps 684 mmHg 42%
    12:00 +31°C° 0 mm 2 mps 683 mmHg 42%
    13:00 +31°C° 0 mm 2 mps 682 mmHg 42%
    14:00 +31°C° 0 mm 2 mps 681 mmHg 42%
    15:00 +30°C° 0 mm 2 mps 681 mmHg 45%
    16:00 +30°C° 0 mm 2 mps 680 mmHg 47%
    17:00 +29°C° 0 mm 1 mps 680 mmHg 50%
    18:00 +28°C° 0 mm 2 mps 680 mmHg 54%
    19:00 +27°C° 0 mm 2 mps 681 mmHg 58%
    20:00 +26°C° 0 mm 2 mps 681 mmHg 62%
    21:00 +25°C° 0.1 mm 2 mps 682 mmHg 67%
    22:00 +24°C° 0.1 mm 2 mps 682 mmHg 72%
    23:00 +23°C° 0.1 mm 2 mps 682 mmHg 78%
    Show more